Clearfield, PA

9:54 PM EDT on April 26, 2017 (GMT -0400)
Clearfield-Lawrence

Weather History for KFIG - December, 2012

Change the Weather History Date:

Friday, December 14, 2012

  Actual Average (KDUJ) Record (KDUJ)
Temperature  
Mean Temperature 32 °F -  
Max Temperature 46 °F 37 °F 63 °F (2015)
Min Temperature 19 °F 22 °F 3 °F (1963)
Degree Days  
Heating Degree Days 32    
Moisture  
Dew Point 22 °F    
Average Humidity 79    
Maximum Humidity 96    
Minimum Humidity 41    
Precipitation  
Precipitation 0.00 in - - ()
Sea Level Pressure  
Sea Level Pressure 30.27 in    
Wind  
Wind Speed 1 mph (WSW)    
Max Wind Speed 13 mph    
Max Gust Speed 20 mph    
Visibility 8 miles    
Events Fog    
Averages and records for this station are not official NWS values.
T = Trace of Precipitation, MM = Missing Value Source: NWS Daily Summary

Daily Weather History Graph

Daily Weather History Graph

Search for Another Location

Airport or City:

Trip Planner

Search our weather history database for the weather conditions in past years. The results will help you decide how hot, cold, wet, or windy it might be!

Date:

Astronomy

Dec. 14, 2012 Rise Set
Actual Time 7:31 AM EST 4:45 PM EST
Civil Twilight 7:00 AM EST 5:17 PM EST
Nautical Twilight 6:25 AM EST 5:51 PM EST
Astronomical Twilight 5:51 AM EST 6:25 PM EST
Moon 8:33 AM EST (12/14) 6:36 PM EST (12/14)
Length of Visible Light 10h 16m
Length of Day
9h 14m
Waxing Crescent, 3% of the Moon is Illuminated
Dec 14
Waxing Crescent
Dec 20
First Quarter
Dec 28
Full
Jan 4
Last Quarter
Jan 11
New

Hourly Weather History & Observations

Time (EST) Temp. Windchill Dew Point Humidity Pressure Visibility Wind Dir Wind Speed Gust Speed Precip Events Conditions
12:54 AM 23.0 °F - 19.9 °F 88% 30.30 in 10.0 mi Calm Calm - N/A   Clear
1:54 AM 24.1 °F - 19.9 °F 84% 30.29 in 10.0 mi Calm Calm - N/A   Clear
2:54 AM 21.0 °F - 19.0 °F 92% 30.30 in 9.0 mi Calm Calm - N/A   Clear
3:54 AM 21.0 °F - 19.0 °F 92% 30.29 in 6.0 mi Calm Calm - N/A   Clear
4:03 AM 21.2 °F - 19.4 °F 93% 30.24 in 7.0 mi Calm Calm - N/A   Scattered Clouds
4:14 AM 21.2 °F - 19.4 °F 93% 30.24 in 6.0 mi Calm Calm - N/A   Mostly Cloudy
4:20 AM 21.2 °F - 19.4 °F 93% 30.24 in 0.8 mi Calm Calm - N/A   Mist
4:32 AM 21.2 °F - 19.4 °F 93% 30.23 in 0.2 mi Calm Calm - N/A Fog Light Freezing Fog
4:42 AM 21.2 °F - 19.4 °F 93% 30.23 in 0.5 mi Calm Calm - N/A Fog Light Freezing Fog
4:49 AM 21.2 °F - 19.4 °F 93% 30.23 in 2.0 mi Calm Calm - N/A   Mostly Cloudy
4:51 AM 21.2 °F - 19.4 °F 93% 30.23 in 4.0 mi Calm Calm - N/A   Scattered Clouds
4:54 AM 21.0 °F - 19.9 °F 96% 30.29 in 5.0 mi Calm Calm - N/A   Scattered Clouds
6:54 AM 19.9 °F - 18.0 °F 92% 30.30 in 7.0 mi Calm Calm - N/A   Clear
7:54 AM 19.0 °F - 17.1 °F 92% 30.31 in 6.0 mi Calm Calm - N/A   Clear
8:54 AM 25.0 °F 18.1 °F 23.0 °F 92% 30.29 in 9.0 mi SSW 5.8 mph - N/A   Clear
9:54 AM 32.0 °F 24.8 °F 23.0 °F 69% 30.29 in 10.0 mi SSW 8.1 mph - N/A   Clear
10:54 AM 39.0 °F 34.0 °F 25.0 °F 57% 30.29 in 10.0 mi WSW 6.9 mph - N/A   Clear
11:54 AM 42.1 °F 35.2 °F 24.1 °F 49% 30.27 in 10.0 mi SW 12.7 mph - N/A   Clear
12:54 PM 44.1 °F 38.1 °F 24.1 °F 45% 30.25 in 10.0 mi WSW 11.5 mph 19.6 mph N/A   Clear
2:54 PM 46.9 °F - 24.1 °F 41% 30.23 in 10.0 mi West 5.8 mph - N/A   Clear
3:54 PM 45.0 °F 41.2 °F 24.1 °F 44% 30.24 in 10.0 mi WSW 6.9 mph - N/A   Clear
5:54 PM 39.0 °F 35.7 °F 24.1 °F 55% 30.27 in 10.0 mi NW 4.6 mph - N/A   Clear
6:54 PM 36.0 °F - 24.1 °F 62% 30.29 in 10.0 mi Calm Calm - N/A   Clear
7:54 PM 32.0 °F - 24.1 °F 73% 30.30 in 10.0 mi Calm Calm - N/A   Clear
8:54 PM 28.9 °F - 24.1 °F 82% 30.28 in 10.0 mi Calm Calm - N/A   Clear
9:54 PM 30.0 °F - 24.1 °F 79% 30.27 in 10.0 mi Calm Calm - N/A   Clear
10:54 PM 28.0 °F - 24.1 °F 85% 30.27 in 10.0 mi Calm Calm - N/A   Clear
11:54 PM 28.0 °F - 24.1 °F 85% 30.27 in 10.0 mi Calm Calm - N/A   Clear